Wind_Speed
33 33 33 33 32 32 31 30 29 27 27 26 26 26 26 25 24 24 23 23 22 21 21 20 19 18 18 18 18 18 18 18 19 19 19 20 20 20 20 20 20 21 21 22 23 24 24 25 26 26 27 28 28 29 30 30 31 31 32 32 33 33 33 34 34 34 34 34 34 34 34 35 35 36 36 37 37 38 38 38 38 39 39 39 39 39
35 35 35 35 34 33 32 31 29 27 26 26 26 26 25 25 24 24 23 22 22 21 20 20 19 18 18 17 17 17 17 18 18 19 19 19 20 20 20 20 21 21 22 23 24 24 25 26 27 27 28 29 30 31 31 32 32 33 33 33 33 34 34 34 34 34 34 34 34 35 35 35 36 36 36 37 37 38 38 38 38 38 38 38 38 38
36 36 36 35 34 33 32 31 29 28 26 25 25 25 25 24 24 23 23 22 21 20 20 19 19 19 18 18 18 18 18 19 19 20 20 20 21 21 21 22 23 23 24 25 26 26 27 28 29 29 30 31 32 33 33 33 34 34 34 34 34 34 34 34 34 34 34 34 35 35 35 36 36 36 36 37 37 37 37 38 38 38 38 38 39 39
36 36 35 35 34 33 31 30 29 27 26 25 25 25 24 24 23 23 22 22 21 20 20 19 19 19 19 19 19 19 20 21 21 21 22 22 22 23 23 24 25 25 26 27 28 28 29 30 31 32 32 33 34 34 35 35 35 35 34 34 34 34 34 34 34 34 35 35 35 35 36 36 36 36 37 37 37 37 38 38 38 38 39 39 39 39
35 34 34 33 32 31 30 28 27 26 25 24 24 24 24 23 23 23 23 22 21 21 20 20 20 20 20 20 21 21 22 22 23 23 23 23 24 24 25 25 26 27 28 29 29 30 31 32 33 34 34 35 35 35 35 35 35 35 35 34 34 34 34 35 35 35 35 35 36 36 36 36 37 37 37 38 38 38 38 39 39 39 39 40 40 40
32 31 30 29 28 28 27 26 25 24 24 24 23 23 23 23 23 23 23 22 22 21 21 21 21 21 21 22 22 23 23 24 24 24 24 24 24 25 25 26 27 28 29 31 31 32 33 34 34 35 35 35 35 35 35 35 35 35 34 34 34 35 35 35 35 35 36 36 36 36 37 37 37 38 38 38 39 39 39 39 39 39 40 40 40 40
27 26 25 25 24 24 23 22 22 22 22 22 23 23 23 23 23 23 23 23 23 23 23 23 23 23 23 23 23 24 24 24 24 24 24 25 25 26 27 28 29 30 31 32 33 33 34 34 34 35 35 35 34 34 34 34 34 34 34 34 34 35 35 35 35 36 36 36 36 36 37 37 37 37 37 38 38 38 38 38 38 38 38 38 38 38
21 21 20 20 20 20 20 20 20 20 20 21 21 22 22 22 23 23 23 23 24 24 24 24 24 24 23 24 24 25 25 25 26 26 26 27 28 28 29 30 31 31 32 33 33 33 33 33 33 33 33 33 33 33 33 33 33 34 34 34 34 34 34 34 34 34 34 34 34 34 34 34 34 34 34 34 34 34 34 34 34 34 34 34 34 34
18 18 17 17 17 17 18 18 18 19 19 20 20 21 22 22 23 23 23 23 24 24 24 24 24 24 25 25 26 26 27 27 28 28 29 29 30 30 30 31 31 31 32 32 32 33 33 33 33 33 33 33 33 33 33 32 32 32 32 32 32 32 31 31 31 31 31 30 30 30 30 29 29 29 29 29 29 29 29 29 28 28 28 28 28 28
19 18 17 17 16 16 16 17 18 18 19 19 20 21 22 23 23 24 24 25 25 25 25 25 25 26 27 27 28 28 29 29 29 30 30 30 30 30 31 31 31 31 32 32 33 33 33 33 33 33 33 32 32 32 31 31 30 30 29 29 28 28 27 27 26 26 25 25 24 24 24 24 24 23 23 23 23 23 23 23 23 23 23 24 24 24
20 20 19 18 18 18 17 17 18 19 19 20 21 22 22 23 24 25 26 26 27 27 27 27 28 28 29 29 30 30 30 30 30 30 30 31 31 31 31 31 32 32 33 33 33 33 33 33 33 32 31 31 30 29 28 28 27 26 25 24 23 22 22 21 21 20 20 19 19 19 19 19 19 19 19 20 20 20 20 21 21 21 22 22 22 23
22 22 22 21 21 20 20 20 20 21 21 22 23 24 24 25 25 26 27 28 28 28 29 29 29 30 30 31 31 31 32 31 31 31 32 32 32 32 33 32 32 33 33 33 33 32 32 31 30 29 28 27 26 25 24 23 21 20 19 18 18 17 17 16 16 16 16 16 16 16 16 17 17 17 18 18 19 19 20 20 21 21 22 22 23 23
23 23 23 23 23 23 22 22 23 23 23 24 25 25 26 26 27 27 28 28 29 29 30 30 31 31 32 32 32 33 33 33 33 33 33 34 34 34 34 33 32 32 32 31 30 29 28 26 25 24 23 22 21 19 18 17 16 15 15 14 14 14 14 14 14 14 14 15 15 16 16 17 17 18 18 19 19 20 20 21 21 22 22 22 23 23
24 25 25 25 25 25 25 25 25 25 25 26 26 26 26 27 27 28 28 29 29 30 30 31 31 32 33 33 34 34 34 34 34 34 34 34 34 34 33 32 31 30 29 27 26 24 23 21 20 19 18 17 16 15 14 13 12 12 12 12 12 12 13 13 14 14 15 15 16 16 17 17 18 18 19 19 19 20 20 21 21 21 22 22 23 23
25 25 26 26 26 26 26 26 26 27 27 27 27 27 28 28 28 29 29 29 30 31 31 31 32 33 33 34 34 34 34 33 33 33 32 33 33 32 31 29 27 25 24 23 21 19 18 17 16 15 14 13 12 11 11 11 11 11 11 12 12 13 13 14 15 15 16 16 17 17 18 18 18 19 19 19 20 20 20 21 21 21 22 22 22 22
25 26 26 27 27 27 27 27 28 28 28 28 28 28 29 29 29 30 30 30 31 31 31 32 32 33 33 34 34 34 33 32 31 30 29 29 30 29 26 24 22 21 20 18 16 15 14 13 13 12 12 11 11 11 11 11 11 12 12 13 13 14 15 15 16 16 16 17 17 18 18 19 19 19 20 20 20 20 21 21 21 21 22 22 22 22
25 26 26 27 27 27 28 28 28 28 29 29 29 29 29 30 30 30 30 31 31 31 31 31 31 31 32 32 32 32 31 29 27 26 25 26 26 24 21 19 17 17 16 14 13 12 12 12 11 11 11 11 11 11 12 12 13 13 14 14 15 15 16 16 17 17 17 18 18 19 19 19 20 20 20 20 21 21 21 21 22 22 22 22 22 23
25 25 26 26 26 27 27 28 28 28 28 29 29 29 29 29 29 30 30 30 30 30 30 30 30 30 30 30 30 30 28 26 24 22 21 22 22 19 16 15 14 14 13 12 11 11 11 11 12 12 12 12 12 13 13 13 14 14 15 15 16 16 17 17 17 18 18 19 19 19 20 20 20 20 21 21 21 21 21 22 22 22 22 22 23 23
24 24 25 25 25 26 26 27 27 27 28 28 28 28 29 28 29 29 29 29 29 29 29 29 28 28 27 27 27 27 25 22 20 19 18 19 18 15 13 12 13 12 12 11 11 11 12 12 13 13 13 14 14 14 14 15 15 16 16 16 17 17 17 18 18 19 19 19 20 20 20 20 20 21 21 21 21 21 21 22 22 22 22 23 23 23
23 23 23 24 24 25 25 25 26 26 27 27 27 27 27 27 28 28 28 28 28 28 27 27 26 26 25 25 24 23 21 19 17 16 16 16 15 13 11 12 12 12 12 12 12 12 13 14 14 14 14 15 15 15 15 16 16 17 17 17 18 18 18 19 19 19 20 20 20 20 20 21 21 21 21 21 21 21 22 22 22 22 23 23 23 23
22 22 23 23 23 24 24 25 25 26 26 26 26 27 27 26 27 27 27 27 27 26 26 25 24 24 23 22 21 20 17 16 15 14 14 14 13 12 11 12 12 13 13 13 13 13 14 15 15 15 15 15 16 16 16 17 17 18 18 18 18 19 19 19 19 20 20 20 20 20 21 21 21 21 21 21 22 22 22 22 23 23 23 23 23 23
22 22 22 23 23 23 24 24 24 25 25 26 26 26 26 25 25 25 25 25 25 25 24 24 23 22 21 20 18 17 15 14 14 13 13 13 13 13 12 12 13 13 14 14 14 14 15 15 16 16 16 16 16 17 17 18 18 18 19 19 19 19 19 19 19 20 20 20 20 21 21 21 21 21 22 22 22 22 23 23 23 23 23 23 23 23
22 22 23 23 23 23 24 24 24 25 25 25 25 25 25 25 24 24 24 24 24 24 23 22 21 21 19 18 16 15 14 13 13 13 13 13 14 14 13 13 13 14 15 15 15 15 15 16 16 16 16 17 17 17 18 18 18 19 19 19 19 19 19 19 19 20 20 20 20 21 21 21 21 22 22 22 23 23 23 23 24 24 24 24 24 23
23 23 23 23 23 24 24 24 25 25 25 25 25 25 25 25 24 24 24 24 23 23 22 21 20 19 18 17 15 14 13 13 13 14 13 14 15 15 15 14 14 14 15 16 16 16 16 16 17 17 17 17 17 18 18 18 19 19 19 19 19 19 19 19 20 20 20 20 21 21 21 21 22 22 23 23 23 23 24 24 24 24 24 24 24 24
23 23 24 24 24 24 25 25 25 25 25 25 25 25 25 25 25 24 24 24 23 22 20 19 19 18 17 16 15 14 14 14 14 14 14 15 16 16 16 15 15 15 15 16 16 16 16 17 17 17 17 17 17 18 18 18 19 19 19 20 20 20 20 20 20 20 20 21 21 21 22 22 22 23 23 24 24 24 24 24 24 25 25 25 24 24
24 24 24 25 25 25 25 26 26 26 26 26 26 25 25 24 24 24 24 24 23 21 20 19 18 18 17 16 15 14 14 14 14 14 15 15 16 16 17 16 15 15 16 16 17 17 17 17 17 17 17 17 17 18 18 19 19 20 20 20 20 20 20 20 21 21 21 21 22 22 22 23 23 24 24 24 24 25 25 25 25 25 25 25 25 25
24 25 25 25 26 26 26 26 27 27 27 27 26 26 25 24 24 23 23 23 22 21 19 18 18 18 17 16 16 15 15 15 15 15 15 16 16 16 17 17 16 16 16 16 17 17 17 17 17 17 18 18 18 18 19 19 20 20 21 21 21 21 21 22 22 22 22 22 22 23 23 24 24 25 25 25 25 26 26 26 26 26 26 26 26 26
25 26 26 26 26 26 27 27 27 27 27 27 27 27 26 24 23 23 23 23 22 20 19 18 18 18 17 17 17 17 16 16 15 15 16 16 16 16 17 17 17 16 16 16 17 17 17 17 17 18 18 18 19 19 20 20 21 22 22 22 23 23 23 23 23 23 23 23 24 24 24 25 25 26 26 26 27 27 27 27 28 28 28 28 28 27
26 26 27 27 27 27 27 27 27 27 28 28 28 27 26 25 23 22 22 22 21 20 19 19 18 18 18 18 18 18 18 17 17 16 16 16 16 16 17 17 17 17 16 16 16 17 17 17 18 18 18 19 19 20 21 21 22 23 23 24 24 24 24 25 25 25 25 25 25 25 26 26 26 27 27 28 28 28 28 29 29 29 29 29 29 29
26 27 27 27 27 27 27 27 27 27 28 28 28 27 26 25 24 23 22 22 21 20 19 19 18 18 18 18 18 19 19 19 18 18 17 16 16 16 17 17 17 17 17 16 16 16 16 17 18 18 18 19 20 20 21 22 23 23 24 25 25 26 26 26 27 27 27 27 27 27 27 27 28 28 28 29 29 29 30 30 30 31 31 31 30 30
26 27 27 27 27 27 28 27 27 27 27 27 27 27 26 25 24 23 22 21 20 19 19 19 19 19 19 19 19 19 20 21 20 19 18 17 16 16 17 17 17 17 17 17 16 15 15 16 18 18 19 19 20 21 22 23 23 24 25 26 26 27 28 28 29 29 29 29 29 29 29 29 29 30 30 30 30 31 31 31 32 32 32 32 32 31
26 26 27 27 27 28 28 28 28 27 27 27 27 26 26 25 24 23 22 21 20 20 19 19 19 19 19 19 19 20 21 22 21 20 19 18 17 17 17 17 18 18 18 17 17 16 15 16 16 18 19 19 20 21 22 23 24 25 26 27 28 28 29 30 31 31 31 31 31 31 31 31 31 31 32 32 32 32 32 32 33 33 33 33 33 32
26 27 27 27 27 28 28 28 28 28 27 27 26 26 25 25 24 23 22 21 20 20 20 20 20 20 20 20 20 21 22 22 22 21 20 19 18 18 18 18 18 18 19 18 18 18 17 16 17 17 18 19 20 21 22 24 25 26 27 28 28 29 30 31 32 33 33 33 34 34 34 34 34 34 33 33 33 33 33 33 34 34 34 34 34 33
26 27 27 27 27 28 28 28 28 28 27 27 26 25 25 24 23 22 22 21 21 20 20 20 20 20 21 21 21 21 22 23 23 22 21 20 19 19 19 19 19 20 20 20 20 19 19 18 18 17 18 18 19 20 22 23 25 26 27 28 29 30 31 32 33 33 34 34 35 35 35 36 36 36 35 35 35 35 35 35 35 35 35 35 34 34
27 27 27 27 27 27 28 28 28 28 27 27 26 25 24 24 23 22 22 21 21 21 21 21 21 21 21 21 21 22 22 23 23 23 22 21 21 20 20 20 20 21 21 21 21 20 20 20 19 19 19 19 19 20 22 23 25 26 27 28 29 30 31 32 33 33 34 35 35 36 36 37 37 37 37 37 36 36 36 36 35 35 35 35 35 34
27 27 27 27 27 27 27 27 27 27 27 26 26 25 24 23 23 22 22 22 22 21 21 22 22 22 22 22 22 22 23 23 24 23 23 23 22 22 22 22 22 22 22 22 22 22 22 21 21 21 21 20 20 21 22 23 24 25 26 27 28 29 30 31 32 33 34 34 35 36 36 37 37 38 38 38 37 37 37 36 36 36 36 35 35 34
27 27 27 27 27 27 27 27 27 27 26 26 25 25 24 23 23 22 22 22 22 22 22 22 23 23 23 23 23 23 23 24 24 24 24 24 24 23 23 23 23 23 23 23 23 23 23 23 23 23 23 22 22 22 22 23 24 25 26 27 28 29 30 31 32 33 33 34 34 35 36 37 37 37 38 38 38 37 37 37 36 36 35 35 35 34
27 27 27 27 27 27 27 27 27 26 26 26 25 25 24 23 23 23 23 23 23 23 23 23 23 23 23 23 24 24 24 24 25 25 25 25 25 25 25 24 25 25 25 25 25 25 25 25 24 24 24 24 24 23 23 23 24 24 25 26 27 28 29 31 32 32 33 34 34 35 35 36 36 37 37 37 37 37 36 36 36 35 35 34 34 33
27 27 27 27 27 27 27 27 27 26 26 25 25 24 24 24 24 23 23 24 24 24 24 24 24 24 24 24 24 25 25 25 25 25 26 26 26 26 26 26 26 26 26 26 26 26 26 26 26 26 26 25 25 24 24 24 24 24 25 26 27 28 29 30 31 32 33 33 34 34 35 35 36 36 36 36 36 36 35 34 34 34 34 33 33 32
27 27 27 27 27 27 27 27 26 26 26 25 25 25 24 24 24 24 24 24 25 25 25 25 25 25 25 25 25 26 26 26 26 26 26 27 27 27 27 27 27 27 27 27 27 27 28 28 28 28 28 27 27 26 25 25 25 25 26 26 27 27 28 29 30 31 32 32 33 33 34 34 35 35 35 35 34 34 33 33 32 32 32 32 32 31
26 26 27 27 27 27 27 27 26 26 26 25 25 25 25 25 25 25 25 25 25 25 25 25 25 25 26 26 26 27 27 27 27 27 27 27 28 28 28 28 28 28 28 28 28 29 29 29 29 29 29 29 28 27 26 25 26 26 27 27 27 28 28 28 29 29 30 31 32 32 32 33 33 33 33 33 32 32 31 31 31 31 31 31 30 30
26 26 26 27 27 27 27 27 26 26 26 26 25 25 26 26 26 26 26 26 26 26 26 26 26 26 26 27 27 27 28 28 28 28 28 28 28 28 28 28 29 29 29 29 29 30 30 30 30 30 30 30 29 28 27 27 27 27 28 28 29 28 28 27 27 28 29 29 30 31 31 31 32 32 31 31 30 30 30 30 30 29 29 29 29 29
26 26 26 26 26 26 26 26 26 26 26 26 26 26 26 26 26 26 26 26 27 27 27 27 27 26 26 27 27 28 28 29 29 29 29 29 29 29 29 29 29 29 30 30 30 30 31 31 31 31 31 31 30 29 29 28 28 28 29 30 30 29 28 27 27 27 27 28 28 29 30 30 30 30 30 29 29 29 29 29 29 29 29 29 29 29
26 26 26 26 26 26 26 26 26 26 26 26 26 27 27 27 27 27 27 27 27 27 27 27 27 27 27 27 28 28 29 29 30 30 30 30 30 30 30 30 30 30 31 31 31 31 31 31 31 31 31 31 31 30 30 30 30 30 30 30 30 30 29 28 27 27 27 27 27 28 29 29 29 29 29 29 28 28 28 28 28 29 29 29 29 28
26 26 26 26 26 26 26 26 26 26 26 26 27 27 27 28 28 28 28 28 28 28 28 28 28 28 27 28 28 28 29 30 30 31 31 31 31 31 31 31 31 31 31 32 32 32 32 32 32 32 32 32 31 31 31 31 31 31 31 31 31 30 30 29 28 28 27 27 27 28 28 29 29 29 29 28 28 28 28 28 28 28 28 28 28 28
26 26 26 26 26 26 26 26 27 27 27 27 27 27 28 28 28 28 29 29 29 29 29 29 29 28 28 28 28 29 29 30 30 31 31 32 32 31 31 31 32 32 32 32 32 32 32 32 32 32 32 32 32 32 32 32 32 32 32 31 31 30 30 29 29 28 28 28 28 28 28 29 29 29 29 28 28 28 28 28 28 28 28 28 28 28
26 26 26 26 26 26 26 27 27 27 27 27 27 28 28 28 29 29 29 29 29 29 29 29 29 29 29 29 29 29 29 29 30 31 32 32 32 32 32 32 32 33 33 33 33 33 33 33 33 33 33 32 32 32 32 33 33 33 32 32 31 31 30 29 29 29 29 29 28 29 29 29 29 29 29 29 28 28 28 27 27 27 27 27 27 27
26 26 26 26 26 26 27 27 27 27 27 27 28 28 28 29 29 29 29 29 29 29 29 29 29 29 29 29 29 29 29 29 30 30 31 32 32 33 33 33 33 33 33 33 33 33 33 33 33 33 33 33 33 33 33 33 33 33 33 32 32 31 30 29 29 29 29 29 29 29 29 29 29 29 29 29 29 28 27 27 27 26 26 26 26 27
26 26 26 26 26 26 26 27 27 27 27 27 28 28 29 29 29 29 29 29 29 29 29 29 29 29 29 29 29 29 29 29 30 30 31 31 32 32 33 33 33 33 33 33 33 33 33 33 33 33 33 33 33 33 33 33 33 33 32 32 31 31 30 30 29 29 29 29 29 29 29 29 30 30 30 30 29 28 28 27 26 26 26 26 26 27
26 26 26 26 26 26 26 27 27 27 27 27 28 28 28 29 29 29 29 29 29 29 29 29 29 29 29 29 29 29 29 29 30 30 31 31 32 32 32 33 33 33 33 33 33 33 33 33 33 33 33 33 34 34 33 33 33 32 32 31 31 30 30 30 29 29 30 30 30 29 29 29 30 30 30 30 30 29 28 27 27 26 26 26 26 26
26 26 26 26 26 26 26 27 27 27 27 27 27 28 28 28 29 29 29 29 29 29 29 29 28 28 28 28 28 29 29 29 29 30 30 31 31 32 32 32 32 32 33 33 33 33 33 33 33 33 33 33 33 33 33 33 32 32 31 30 30 30 30 30 29 30 30 30 30 29 29 30 30 30 30 30 30 30 29 28 27 26 26 26 26 26
Wind_Direction
305 305 305 306 306 307 308 308 309 309 309 308 306 305 304 304 303 303 302 301 299 298 296 295 292 290 286 283 280 277 275 273 271 270 270 269 269 269 268 268 267 266 265 265 265 265 265 266 266 267 267 267 267 267 267 267 268 268 268 269 270 270 271 272 272 272 272 272 272 271 271 271 271 270 270 270 270 271 271 271 271 271 271 271 271 271
303 304 304 304 305 305 305 306 306 306 305 304 303 303 303 303 303 303 302 300 299 298 297 295 293 291 288 285 283 280 279 277 276 275 275 275 275 275 274 274 273 272 271 270 270 270 270 271 271 271 271 270 270 269 269 269 269 269 270 270 271 272 272 273 273 273 273 273 272 272 272 272 272 271 271 271 271 272 272 272 272 272 272 272 273 273
301 302 302 303 303 303 303 303 303 303 302 301 300 300 300 301 301 301 300 298 297 295 294 293 292 291 290 288 286 284 283 281 280 279 279 278 278 278 278 277 276 275 274 274 274 274 274 273 273 272 272 271 271 270 270 270 270 271 271 272 273 273 274 274 274 274 274 274 274 274 273 273 273 273 273 273 273 273 273 273 273 273 273 273 273 273
299 299 300 300 301 301 301 302 302 301 300 298 297 297 298 299 299 299 298 296 294 292 291 290 289 288 287 286 285 284 282 281 281 280 280 280 280 280 279 278 277 276 276 275 275 274 274 273 273 272 271 271 271 270 271 271 271 272 273 273 274 274 275 275 275 275 275 275 275 275 275 275 274 274 274 274 274 274 274 274 274 274 274 274 273 273
297 297 298 299 299 300 300 301 301 300 298 296 295 295 296 297 297 297 296 294 293 291 289 288 286 285 283 282 281 280 280 279 279 280 280 280 280 280 279 278 277 276 275 274 274 273 272 271 271 270 270 270 270 270 271 271 272 272 273 274 274 274 274 275 275 275 275 275 275 276 276 275 275 275 275 275 275 275 275 274 274 274 274 274 273 273
297 297 298 299 300 300 301 301 301 300 298 296 294 293 293 293 294 294 294 293 292 290 289 287 286 284 282 280 279 278 278 278 278 278 279 279 278 277 276 275 274 273 272 271 271 270 270 270 269 269 270 270 270 271 271 271 272 272 273 273 273 273 273 274 274 275 275 275 276 276 276 276 276 276 276 275 275 275 275 275 275 274 274 274 273 273
300 300 301 302 303 303 304 303 302 301 299 296 294 293 292 291 290 290 289 289 288 287 286 285 283 281 280 279 278 278 278 278 278 278 277 276 275 274 272 271 271 270 270 270 270 270 270 270 270 270 270 270 271 271 271 271 272 272 272 272 272 273 273 274 274 275 275 276 276 276 276 276 276 276 276 276 276 276 275 275 275 275 275 274 274 273
306 307 307 308 308 308 307 305 304 302 299 297 294 293 292 290 289 288 286 285 284 283 283 282 281 280 279 279 279 279 279 279 279 278 278 276 275 274 273 273 272 272 272 272 272 272 272 272 272 272 272 272 272 272 272 273 273 273 273 274 274 275 275 275 276 276 276 276 276 276 276 276 276 276 276 276 276 276 276 276 276 275 275 275 275 275
312 313 313 312 310 309 307 305 303 301 299 297 294 292 291 290 290 289 288 286 285 285 284 284 284 283 283 283 282 282 281 281 280 280 279 279 278 277 276 276 276 275 275 275 275 275 275 275 275 275 276 276 276 276 276 276 276 276 277 277 277 278 277 277 277 277 277 276 276 276 276 276 276 276 276 276 277 277 277 277 277 277 277 277 277 276
314 314 313 312 309 307 304 301 300 299 298 296 294 293 292 291 291 291 290 290 289 289 289 288 288 287 286 285 284 283 283 282 282 282 281 281 280 280 279 279 278 278 278 278 278 278 278 278 279 279 279 279 279 279 279 279 279 280 280 280 280 279 279 278 278 277 277 277 276 276 276 277 277 277 278 278 278 279 279 279 280 280 280 280 279 279
311 311 310 308 306 304 301 298 296 295 294 293 292 292 291 291 291 291 291 291 291 291 291 290 289 289 288 287 286 285 284 284 284 284 283 283 282 282 281 281 281 281 281 280 280 280 280 280 280 280 281 280 280 280 280 281 281 281 281 280 280 279 278 277 277 277 276 277 277 277 278 278 279 280 280 281 282 282 283 283 283 283 283 283 283 282
307 307 306 305 303 301 299 297 295 293 291 289 289 289 289 289 289 289 289 289 290 290 290 290 289 289 288 288 287 287 287 286 286 286 286 285 284 284 283 283 283 282 282 282 281 281 281 281 280 280 279 279 279 279 279 279 279 278 278 277 276 275 275 275 275 276 276 277 278 279 280 281 282 282 283 284 284 284 285 285 285 285 285 285 284 284
306 305 304 302 301 299 297 295 294 292 290 288 288 287 287 288 288 287 286 287 287 287 288 288 288 288 287 287 287 287 287 287 287 287 287 286 286 285 285 284 284 283 283 282 281 281 280 280 279 278 277 276 276 275 275 275 274 273 273 272 272 272 272 273 274 276 277 278 279 280 281 282 282 283 283 284 284 284 285 285 285 284 284 284 284 283
304 303 302 300 299 298 297 295 293 292 291 290 289 288 288 288 287 287 286 286 286 286 287 286 286 286 286 286 285 285 285 286 286 286 287 286 286 285 285 285 284 283 282 281 280 279 279 277 276 274 273 272 272 271 271 270 270 269 269 270 270 271 273 274 275 276 277 278 279 280 281 281 282 282 282 283 283 283 283 283 283 283 283 282 282 281
303 302 301 300 299 298 297 296 295 294 293 292 291 291 290 289 288 288 287 286 286 286 286 285 284 284 285 284 284 284 284 284 285 285 286 285 284 283 283 283 283 281 280 279 278 277 275 273 271 269 269 268 268 268 268 268 269 269 270 271 272 273 274 275 276 277 278 279 279 280 281 281 281 282 282 282 282 282 282 282 282 282 281 281 281 280
305 303 302 301 301 300 299 298 297 296 295 294 293 292 290 289 289 288 287 287 286 285 285 285 284 284 284 284 284 284 284 284 284 285 284 284 282 281 282 282 280 278 276 275 274 272 270 268 267 266 267 267 268 269 270 270 271 272 273 273 274 275 276 277 278 279 280 280 281 281 281 282 282 282 282 282 283 283 283 282 282 282 282 282 281 281
306 304 303 303 302 301 301 300 298 297 296 295 294 293 292 291 290 289 289 288 287 287 286 286 285 284 285 285 286 286 285 285 285 285 283 281 279 279 280 279 276 273 271 270 269 267 266 265 266 267 268 269 271 272 273 274 274 275 276 276 277 278 279 280 280 281 281 282 282 282 283 283 283 283 284 284 284 284 284 284 284 284 283 283 283 282
307 306 305 304 303 303 302 300 299 298 297 296 295 295 294 293 292 291 290 290 289 289 288 288 287 286 285 285 286 287 287 287 286 284 280 277 276 277 277 274 270 268 267 267 266 265 266 267 268 270 271 273 274 275 276 276 277 277 278 278 279 280 280 281 282 282 282 283 283 283 284 284 285 285 286 286 286 286 286 286 286 285 285 284 284 284
309 308 306 305 304 304 303 302 301 300 298 297 297 296 296 296 295 294 293 292 291 291 290 289 289 288 287 285 285 286 287 286 284 280 275 272 272 273 272 268 265 265 265 266 267 268 269 270 272 273 274 275 276 277 277 278 278 278 279 280 280 281 281 282 283 283 284 284 285 285 286 286 287 288 288 288 288 288 287 287 286 286 286 285 285 285
311 310 308 307 306 305 304 304 303 302 300 300 300 299 299 298 297 296 295 294 293 292 291 290 289 287 286 284 284 284 284 282 279 274 269 267 268 269 267 265 265 265 266 268 269 270 271 272 273 274 275 277 277 278 278 279 279 280 281 281 282 282 283 284 284 285 286 286 287 288 289 289 290 290 290 290 289 289 288 288 287 287 286 286 285 285
313 312 311 309 308 307 306 305 304 304 303 303 302 301 301 300 299 297 296 294 293 292 291 289 288 286 284 282 281 280 279 276 272 267 263 263 264 265 265 265 266 268 269 270 271 271 272 273 274 275 277 278 279 280 280 281 282 282 283 283 284 285 285 286 287 287 288 289 290 291 291 291 291 291 291 291 290 289 289 288 288 287 287 286 286 285
315 314 312 311 310 309 308 308 307 306 305 304 303 302 301 300 299 297 295 293 292 290 289 288 286 284 283 280 277 275 272 268 265 262 261 263 265 266 267 267 269 270 271 272 272 272 273 274 276 277 279 280 281 282 283 283 284 285 285 286 286 287 288 289 289 290 291 291 292 292 292 292 292 292 291 291 290 289 289 288 288 287 287 286 285 285
316 315 314 313 312 312 311 310 310 309 308 307 305 304 302 301 299 296 294 292 290 289 287 286 284 282 280 276 273 269 265 263 262 261 262 265 267 269 269 270 271 271 272 273 274 274 275 276 278 279 281 282 283 284 285 285 286 286 287 288 289 289 290 291 291 292 292 292 292 292 292 292 292 291 290 290 289 289 288 288 287 287 286 286 285 284
317 316 316 315 315 314 313 313 312 311 310 309 307 306 305 303 300 298 295 293 291 289 286 284 281 278 276 273 269 265 262 261 261 263 265 267 269 271 272 272 272 272 273 274 275 276 277 278 279 281 282 283 284 285 286 286 287 288 289 290 290 291 292 292 292 292 292 292 292 292 291 291 291 290 290 289 289 289 288 288 288 287 287 286 286 285
317 317 317 317 316 316 315 314 313 312 311 310 309 307 306 303 301 299 297 294 292 288 285 281 278 274 272 268 265 263 262 261 263 266 267 269 271 273 274 274 273 273 274 275 276 277 278 280 281 282 283 284 285 286 287 288 288 289 290 291 292 292 292 292 292 292 292 291 291 291 291 291 290 290 290 290 289 289 289 289 289 289 288 288 288 288
318 318 318 318 317 317 316 315 314 313 312 311 309 307 305 303 301 298 296 293 290 286 282 279 275 271 269 266 263 262 262 263 265 267 269 270 272 274 275 275 274 273 274 276 277 278 279 281 282 283 284 285 286 287 288 289 290 291 291 292 292 292 292 292 292 291 291 291 291 291 291 291 291 291 291 291 291 291 291 291 291 291 291 291 291 291
318 318 317 317 317 316 316 315 314 313 312 311 310 308 305 302 300 296 293 290 287 284 280 275 271 268 267 265 264 264 264 266 267 268 270 271 272 273 275 275 275 274 275 276 278 279 280 282 283 285 286 287 289 289 290 291 291 292 292 292 292 292 292 292 292 292 292 292 292 292 292 292 292 292 292 292 293 293 293 293 293 293 293 294 294 294
317 317 317 316 316 315 315 314 313 312 311 310 309 307 305 302 298 294 290 288 284 280 276 271 268 265 266 266 266 267 268 268 268 269 270 271 271 272 273 274 274 274 275 276 278 280 281 282 284 286 288 289 290 291 291 292 292 292 292 292 292 293 293 293 293 293 293 293 293 293 293 294 293 294 294 294 294 294 295 295 295 295 295 295 295 296
317 316 316 315 315 314 313 313 312 311 310 309 308 306 304 300 296 292 288 285 281 276 272 269 266 265 266 267 268 270 271 271 270 269 269 269 269 269 271 272 273 273 274 275 277 279 281 283 285 286 288 289 290 291 291 291 291 292 292 292 293 293 293 294 294 294 294 294 294 294 294 294 294 294 295 295 295 295 296 296 296 296 296 296 296 296
315 315 314 314 313 312 312 311 310 309 308 307 306 305 303 299 295 291 286 282 277 272 269 267 266 266 266 268 270 272 273 272 272 270 269 268 267 268 269 270 271 272 273 274 275 277 280 282 284 285 286 286 287 288 289 289 290 290 291 292 293 293 294 295 295 295 295 295 295 295 295 295 295 295 295 295 295 296 296 296 296 296 296 296 296 296
314 313 312 312 311 310 310 309 309 308 307 306 305 303 301 298 294 289 284 279 274 270 267 266 266 266 267 269 270 272 273 274 273 272 271 269 268 267 268 269 270 271 271 271 272 272 273 276 279 281 282 283 284 285 286 287 288 290 291 292 293 294 295 296 296 296 296 296 296 296 296 295 295 295 295 295 295 296 296 296 296 296 296 296 295 295
313 312 311 310 310 309 309 308 307 307 306 304 303 301 299 296 292 287 282 277 272 269 266 265 266 267 268 269 270 271 273 274 274 274 273 271 270 269 269 269 270 270 270 270 269 268 266 266 269 273 276 279 281 283 285 287 288 290 291 292 293 295 296 296 297 297 297 297 297 297 296 296 296 295 295 295 295 295 295 295 295 295 295 295 294 294
312 312 311 310 309 309 308 307 307 306 305 303 301 299 297 294 289 284 279 274 270 268 266 266 266 267 268 269 270 271 271 273 274 274 273 272 271 270 270 269 269 269 269 269 268 267 265 263 262 264 267 272 276 279 282 284 286 288 290 291 292 293 294 295 296 296 296 297 297 296 296 296 296 295 295 295 295 294 294 294 294 294 294 293 293 293
312 312 311 310 309 309 308 307 306 305 304 302 300 298 295 291 287 282 277 272 269 267 267 267 267 267 268 269 270 270 270 271 272 273 273 273 272 271 270 269 269 269 268 268 268 268 267 266 264 263 263 266 269 273 276 279 281 284 286 287 288 289 290 291 292 293 293 294 294 294 295 294 294 294 294 294 293 293 293 293 293 292 292 292 292 292
313 312 311 310 309 309 308 307 306 305 303 302 299 297 293 289 285 280 275 271 268 267 267 267 267 268 268 268 269 269 270 271 272 273 273 272 272 271 270 269 269 269 269 269 269 270 270 270 270 269 268 267 269 271 273 276 278 279 281 283 284 285 286 287 288 288 289 290 290 291 291 292 292 292 292 292 292 292 292 291 291 291 291 291 291 291
313 312 311 310 310 309 308 307 306 304 303 301 298 296 292 288 283 278 273 270 268 268 268 268 268 268 268 269 269 269 269 271 272 272 272 272 272 271 271 270 270 270 270 271 271 272 273 274 274 275 275 275 274 274 275 276 278 279 280 281 281 282 283 284 284 285 285 286 287 287 288 288 289 289 289 290 290 290 290 290 290 291 291 291 291 291
313 312 312 311 310 309 308 307 306 304 302 300 298 295 291 286 281 277 273 270 269 268 268 269 269 269 269 269 269 269 269 270 271 271 272 272 272 272 272 272 272 272 272 273 274 274 275 276 277 278 279 280 279 279 278 278 279 280 280 281 281 281 282 282 282 283 283 284 284 284 285 285 286 286 287 287 288 288 289 289 290 290 290 290 291 291
314 313 313 312 311 310 309 308 306 304 302 300 297 293 290 285 281 277 273 271 270 269 269 270 270 271 271 271 271 270 270 270 270 271 271 272 272 273 273 273 274 274 275 276 277 278 279 280 281 281 282 282 282 282 281 280 280 280 280 280 281 281 281 281 282 282 282 282 282 282 283 283 283 284 284 285 286 286 287 288 289 289 289 290 290 290
315 314 313 313 312 311 310 308 306 304 302 299 296 293 289 285 281 278 275 273 272 272 272 272 272 273 273 273 272 272 271 271 271 271 271 272 272 273 274 275 276 277 278 279 280 281 282 283 283 284 284 284 283 283 283 282 282 281 280 280 280 281 281 281 281 281 281 281 281 281 281 282 282 282 283 283 284 285 286 287 288 288 288 288 289 289
316 315 314 313 313 312 310 309 307 304 302 299 296 293 289 286 282 279 277 275 274 274 274 274 274 274 274 274 274 273 273 272 272 272 272 273 273 274 275 276 277 278 279 281 282 283 284 285 286 286 286 286 285 284 284 283 283 283 282 281 281 281 281 281 281 281 281 281 281 281 281 281 281 281 282 283 283 284 285 286 286 286 287 287 288 288
317 316 315 314 313 312 311 309 307 304 302 299 296 293 290 287 284 281 279 278 277 276 276 276 276 276 276 276 275 275 274 274 274 274 274 274 275 275 276 277 279 280 281 282 284 285 286 287 287 287 288 288 287 287 286 286 285 285 285 284 283 282 282 281 281 281 280 280 280 280 280 280 280 281 282 283 283 284 285 285 285 286 286 286 287 287
318 317 316 315 314 312 311 309 307 304 302 300 297 294 291 288 286 284 282 280 279 279 278 278 278 278 278 277 277 277 276 276 276 276 276 276 277 277 278 279 280 281 282 284 285 286 287 288 288 289 289 289 289 289 289 288 288 288 288 287 286 285 284 283 283 282 281 281 280 280 280 280 280 281 282 283 284 284 285 285 285 285 286 286 286 287
319 318 317 316 314 313 311 310 307 305 303 300 298 295 292 290 287 285 284 282 281 280 280 279 279 279 279 279 279 279 278 278 278 278 278 279 279 280 280 281 282 283 284 285 286 287 287 288 289 290 290 290 290 291 291 291 291 291 290 290 290 289 288 286 285 283 283 282 281 281 281 281 281 282 282 283 284 285 285 286 286 286 286 286 286 287
320 319 318 317 316 314 313 310 308 306 303 301 298 296 293 291 289 287 285 284 282 281 281 281 280 280 280 280 280 281 281 281 281 281 281 281 281 282 282 283 284 284 285 286 287 288 289 289 290 290 291 291 292 292 293 293 293 293 293 293 293 292 292 290 288 286 285 284 283 282 282 282 282 283 283 284 285 286 286 286 286 287 287 287 287 287
321 320 319 318 317 315 313 311 309 307 304 302 299 297 295 292 290 289 287 286 284 283 283 282 282 282 281 281 281 282 282 283 283 283 283 283 283 284 284 285 285 286 287 287 288 289 290 290 291 291 291 292 293 294 294 295 295 294 295 295 295 295 294 293 292 290 288 286 285 284 284 284 284 284 285 285 286 286 286 287 287 287 287 288 288 288
321 320 319 318 317 315 314 312 310 308 306 303 301 298 296 294 292 291 289 288 286 285 285 284 284 283 283 283 283 283 283 284 284 285 285 285 285 286 286 286 287 287 288 288 289 289 290 291 291 291 292 292 293 294 295 296 296 296 296 296 296 296 296 295 294 293 291 289 287 286 285 285 285 286 286 286 286 286 286 286 286 287 287 287 287 288
321 320 320 318 317 316 314 313 311 309 307 305 303 301 299 297 295 293 292 290 289 288 287 286 286 285 284 284 284 283 283 284 284 285 285 285 286 286 286 286 287 287 288 288 289 290 290 291 291 292 293 293 294 295 296 296 297 297 297 297 297 297 297 296 295 293 292 290 289 288 287 287 287 287 287 287 286 286 286 286 286 286 285 285 285 285
321 320 320 319 318 316 315 313 312 310 308 306 304 302 301 299 297 296 294 293 291 290 289 288 287 286 285 285 284 284 283 283 283 283 283 284 284 285 285 286 286 287 287 288 289 290 290 291 292 292 293 294 295 295 296 296 297 297 297 297 297 297 296 296 294 293 292 291 290 289 288 288 288 287 287 286 286 286 285 285 284 284 283 282 282 282
321 320 320 319 318 316 315 314 312 311 309 307 306 304 302 301 299 298 296 295 293 292 291 289 288 287 286 285 284 284 283 282 282 281 281 281 282 282 283 284 285 286 286 287 288 289 290 290 291 292 293 294 295 295 296 296 296 296 297 297 297 296 296 295 293 292 291 290 290 289 289 289 288 288 288 287 287 286 285 284 283 282 282 281 281 281
320 320 319 318 317 316 315 314 312 311 309 308 306 305 303 302 301 299 297 296 295 293 292 291 289 288 287 286 285 284 283 282 282 281 280 280 280 281 281 282 283 284 285 286 287 288 288 289 290 291 292 294 294 295 295 295 295 295 295 295 295 295 295 294 293 292 291 290 290 289 289 289 289 289 289 288 288 287 286 284 283 282 282 281 281 282
320 319 319 318 317 316 315 313 312 311 309 308 307 305 304 303 301 300 298 297 296 295 293 292 291 290 289 287 286 285 284 283 282 281 281 280 281 281 281 282 283 284 284 285 286 286 287 288 289 290 291 292 293 294 294 294 294 293 294 294 294 294 294 293 293 292 291 290 290 290 290 290 289 289 289 289 289 288 287 285 283 282 283 283 283 283
Height
3051 3050 3048 3047 3046 3046 3044 3043 3042 3041 3040 3039 3038 3038 3038 3037 3036 3036 3035 3034 3033 3032 3032 3031 3031 3031 3030 3030 3030 3031 3031 3031 3031 3032 3032 3032 3032 3032 3031 3031 3031 3031 3032 3032 3033 3033 3033 3033 3034 3034 3034 3034 3034 3034 3034 3035 3035 3035 3035 3035 3036 3036 3036 3035 3035 3035 3035 3035 3035 3034 3034 3034 3034 3035 3035 3035 3035 3035 3035 3035 3035 3035 3035 3036 3036 3036
3049 3048 3047 3046 3045 3044 3043 3042 3041 3040 3039 3038 3037 3037 3036 3036 3036 3035 3034 3033 3033 3032 3032 3031 3031 3031 3030 3030 3030 3030 3030 3031 3031 3031 3031 3031 3031 3030 3030 3030 3030 3031 3031 3031 3031 3031 3031 3031 3031 3032 3032 3032 3032 3032 3032 3032 3032 3032 3032 3032 3032 3032 3032 3032 3032 3031 3031 3031 3031 3031 3031 3031 3031 3031 3031 3031 3031 3031 3031 3032 3032 3032 3032 3032 3032 3033
3047 3046 3045 3044 3043 3042 3041 3040 3039 3038 3038 3037 3036 3036 3035 3035 3035 3034 3033 3033 3032 3032 3031 3031 3031 3030 3030 3030 3030 3030 3030 3030 3030 3030 3030 3030 3029 3029 3029 3029 3029 3029 3029 3030 3030 3030 3030 3030 3030 3030 3030 3030 3030 3030 3030 3030 3030 3030 3030 3029 3029 3029 3029 3028 3028 3028 3028 3028 3028 3028 3028 3028 3028 3028 3028 3028 3028 3028 3028 3028 3028 3029 3029 3029 3029 3029
3045 3044 3043 3042 3041 3040 3039 3038 3038 3037 3036 3036 3035 3034 3034 3034 3033 3033 3032 3032 3031 3031 3031 3031 3030 3030 3030 3030 3029 3029 3029 3029 3029 3029 3028 3028 3028 3028 3028 3028 3028 3028 3028 3028 3028 3028 3027 3027 3027 3028 3028 3028 3028 3027 3027 3027 3027 3027 3026 3026 3026 3026 3026 3025 3025 3025 3025 3025 3025 3025 3025 3025 3025 3025 3025 3025 3025 3025 3025 3025 3025 3025 3026 3026 3026 3026
3043 3042 3041 3041 3039 3038 3037 3037 3036 3035 3035 3034 3033 3033 3032 3032 3032 3031 3031 3031 3031 3031 3030 3030 3030 3030 3029 3029 3029 3029 3028 3028 3028 3028 3027 3027 3027 3027 3026 3026 3026 3026 3026 3026 3026 3026 3026 3026 3026 3026 3025 3025 3025 3025 3025 3025 3024 3024 3024 3023 3023 3023 3022 3022 3022 3022 3022 3022 3022 3022 3022 3022 3022 3022 3022 3022 3022 3022 3022 3022 3022 3022 3022 3022 3022 3023
3041 3041 3040 3039 3038 3037 3036 3035 3034 3034 3033 3032 3032 3031 3031 3031 3031 3030 3030 3030 3029 3029 3029 3029 3029 3028 3028 3028 3028 3027 3027 3027 3026 3026 3026 3026 3026 3025 3025 3025 3025 3025 3024 3024 3024 3024 3023 3023 3023 3023 3023 3023 3022 3022 3022 3021 3021 3021 3021 3020 3020 3020 3020 3020 3019 3019 3019 3019 3019 3019 3019 3019 3019 3019 3018 3018 3018 3018 3018 3018 3018 3019 3019 3019 3019 3019
3040 3039 3038 3037 3036 3035 3034 3033 3033 3032 3032 3031 3031 3030 3030 3029 3029 3029 3028 3028 3028 3027 3027 3027 3027 3026 3026 3026 3026 3025 3025 3025 3024 3024 3024 3024 3024 3023 3023 3023 3022 3022 3022 3021 3021 3021 3021 3021 3021 3021 3020 3020 3020 3020 3019 3019 3018 3018 3018 3017 3017 3017 3017 3017 3017 3016 3016 3016 3016 3016 3016 3016 3016 3015 3015 3015 3015 3015 3015 3015 3015 3015 3016 3016 3016 3016
3038 3037 3036 3036 3035 3034 3033 3032 3031 3031 3031 3030 3029 3029 3028 3028 3027 3027 3026 3026 3026 3026 3025 3025 3025 3024 3024 3023 3023 3022 3022 3022 3022 3022 3021 3021 3021 3021 3021 3021 3020 3020 3019 3019 3019 3019 3018 3018 3018 3018 3017 3017 3017 3016 3016 3016 3015 3015 3015 3014 3014 3014 3014 3014 3014 3013 3013 3013 3013 3013 3013 3012 3012 3012 3012 3012 3012 3012 3012 3012 3012 3012 3012 3012 3012 3012
3037 3036 3035 3034 3034 3033 3032 3031 3031 3030 3029 3029 3028 3027 3027 3026 3026 3025 3025 3024 3024 3024 3023 3023 3023 3022 3021 3021 3021 3020 3020 3020 3020 3020 3019 3019 3019 3019 3018 3018 3018 3017 3017 3016 3016 3016 3016 3015 3015 3015 3014 3014 3013 3013 3012 3012 3012 3011 3011 3011 3011 3011 3011 3011 3011 3010 3010 3010 3010 3010 3010 3010 3010 3010 3010 3010 3010 3010 3010 3010 3010 3010 3010 3010 3010 3010
3036 3035 3034 3033 3032 3032 3031 3030 3030 3029 3028 3027 3027 3026 3026 3025 3024 3024 3023 3023 3022 3022 3021 3021 3021 3020 3019 3019 3018 3018 3018 3018 3017 3017 3017 3016 3016 3016 3016 3015 3015 3014 3014 3013 3013 3013 3012 3012 3011 3011 3011 3010 3010 3009 3009 3009 3008 3008 3008 3008 3008 3008 3008 3008 3008 3008 3008 3008 3008 3008 3008 3008 3008 3008 3007 3007 3007 3007 3007 3007 3007 3007 3007 3007 3007 3007
3034 3033 3032 3032 3031 3031 3030 3029 3029 3028 3027 3026 3026 3025 3024 3024 3023 3022 3021 3021 3020 3020 3020 3019 3019 3018 3017 3016 3016 3016 3016 3015 3015 3015 3014 3014 3014 3013 3013 3012 3012 3011 3011 3011 3010 3010 3009 3009 3009 3008 3008 3007 3007 3006 3006 3006 3006 3006 3006 3006 3006 3006 3006 3006 3006 3006 3006 3006 3006 3006 3006 3006 3006 3006 3006 3006 3006 3006 3006 3006 3006 3006 3006 3005 3005 3005
3033 3032 3031 3030 3030 3029 3028 3028 3027 3026 3026 3025 3024 3023 3022 3022 3021 3021 3020 3019 3018 3018 3017 3017 3016 3016 3015 3014 3014 3013 3013 3012 3012 3012 3011 3011 3011 3010 3010 3010 3009 3009 3008 3008 3007 3007 3006 3006 3006 3006 3005 3005 3005 3004 3004 3004 3004 3004 3005 3005 3005 3005 3005 3005 3005 3005 3005 3004 3004 3004 3004 3004 3004 3004 3004 3004 3004 3004 3004 3004 3004 3004 3003 3003 3003 3003
3031 3030 3029 3029 3028 3027 3027 3026 3025 3025 3024 3023 3023 3022 3021 3020 3020 3019 3018 3017 3016 3016 3015 3015 3014 3013 3012 3012 3011 3011 3011 3010 3010 3009 3009 3008 3007 3007 3006 3006 3006 3006 3006 3005 3005 3004 3004 3004 3004 3004 3003 3003 3003 3003 3003 3003 3003 3003 3003 3003 3003 3003 3003 3003 3003 3003 3003 3003 3003 3003 3003 3003 3003 3003 3003 3003 3003 3002 3002 3002 3002 3002 3001 3001 3001 3001
3030 3029 3028 3027 3026 3026 3025 3025 3024 3023 3022 3021 3021 3020 3019 3018 3018 3017 3016 3016 3015 3014 3013 3013 3012 3011 3010 3009 3009 3008 3008 3008 3007 3007 3006 3006 3005 3004 3004 3004 3004 3003 3003 3003 3002 3002 3002 3002 3002 3002 3002 3002 3002 3002 3002 3002 3002 3002 3002 3002 3002 3002 3002 3002 3002 3001 3001 3001 3001 3001 3001 3001 3001 3001 3001 3001 3001 3001 3001 3001 3000 3000 3000 3000 3000 3000
3028 3027 3026 3026 3025 3024 3023 3023 3022 3021 3020 3020 3019 3018 3017 3016 3016 3015 3015 3014 3013 3012 3011 3011 3010 3009 3008 3007 3006 3006 3006 3006 3006 3005 3004 3003 3002 3001 3001 3002 3002 3001 3001 3001 3001 3001 3001 3001 3000 3000 3000 3000 3000 3001 3001 3001 3001 3001 3001 3001 3000 3000 3000 3000 3000 3000 3000 3000 3000 3000 3000 3000 3000 3000 3000 3000 3000 2999 2999 2999 2999 2999 2998 2998 2998 2998
3026 3026 3025 3024 3023 3022 3021 3021 3020 3019 3018 3017 3017 3016 3016 3015 3014 3013 3012 3012 3011 3010 3010 3009 3008 3007 3006 3005 3004 3004 3003 3003 3003 3003 3002 3001 3000 2999 3000 3000 3000 3000 2999 2999 2999 2999 2999 2999 2999 2999 2999 2999 2999 2999 2999 2999 2999 2999 2999 2999 2999 2999 2999 2999 2999 2999 2999 2999 2999 2999 2999 2998 2998 2998 2998 2998 2998 2997 2997 2997 2997 2997 2996 2996 2996 2996
3025 3024 3023 3022 3021 3020 3020 3019 3018 3017 3016 3016 3015 3014 3013 3013 3012 3011 3010 3010 3009 3008 3007 3006 3006 3005 3004 3002 3001 3001 3001 3001 3001 3001 3001 2999 2998 2997 2998 2998 2998 2998 2998 2998 2998 2998 2998 2997 2997 2997 2997 2998 2998 2998 2998 2998 2998 2997 2997 2997 2997 2997 2997 2997 2997 2997 2997 2997 2997 2997 2997 2996 2996 2996 2996 2996 2996 2996 2995 2995 2995 2995 2994 2994 2994 2994
3023 3022 3021 3020 3020 3019 3018 3017 3016 3015 3015 3014 3013 3012 3011 3011 3010 3009 3008 3007 3006 3006 3005 3004 3003 3003 3002 3001 2999 2999 2999 2999 2999 2999 2998 2997 2996 2996 2997 2997 2997 2996 2996 2996 2996 2996 2996 2996 2996 2996 2996 2996 2996 2996 2996 2996 2996 2996 2996 2996 2996 2996 2996 2996 2996 2996 2996 2995 2995 2995 2995 2995 2995 2994 2994 2994 2994 2993 2993 2993 2993 2992 2992 2992 2992 2991
3022 3021 3020 3019 3018 3017 3016 3015 3014 3014 3013 3012 3011 3010 3009 3009 3008 3007 3006 3005 3004 3003 3002 3001 3001 3000 3000 2999 2998 2997 2997 2997 2997 2997 2996 2996 2995 2995 2996 2996 2995 2995 2995 2995 2995 2995 2995 2995 2995 2995 2995 2995 2995 2995 2995 2995 2995 2994 2994 2994 2994 2994 2994 2994 2994 2994 2994 2993 2993 2993 2993 2993 2992 2992 2992 2992 2991 2991 2991 2991 2991 2991 2990 2990 2990 2990
3020 3019 3018 3017 3016 3016 3015 3014 3013 3012 3011 3010 3009 3008 3007 3006 3006 3005 3004 3003 3002 3001 3000 3000 2999 2998 2998 2997 2996 2996 2996 2996 2996 2995 2995 2994 2994 2995 2995 2994 2994 2994 2994 2994 2994 2994 2994 2993 2993 2993 2993 2993 2993 2993 2993 2993 2993 2993 2993 2993 2992 2992 2992 2992 2992 2992 2992 2991 2991 2991 2991 2991 2990 2990 2990 2990 2989 2989 2989 2989 2989 2988 2988 2988 2988 2988
3019 3018 3017 3016 3015 3014 3013 3012 3011 3011 3009 3008 3007 3006 3006 3005 3004 3003 3002 3001 3000 2999 2998 2998 2997 2996 2996 2996 2995 2994 2994 2994 2994 2994 2994 2993 2993 2993 2993 2993 2993 2993 2993 2993 2993 2992 2992 2992 2992 2992 2992 2992 2992 2992 2991 2991 2991 2991 2991 2991 2991 2991 2991 2990 2990 2990 2990 2989 2989 2989 2989 2988 2988 2988 2988 2987 2987 2987 2987 2987 2986 2986 2986 2986 2986 2986
3017 3016 3016 3015 3014 3013 3012 3011 3010 3009 3008 3007 3006 3005 3004 3003 3002 3001 3000 2999 2998 2997 2997 2996 2996 2995 2994 2994 2994 2993 2993 2993 2993 2992 2992 2992 2992 2992 2992 2992 2992 2992 2991 2991 2991 2991 2991 2991 2990 2990 2991 2990 2990 2990 2990 2990 2989 2989 2989 2989 2989 2989 2988 2988 2988 2988 2987 2987 2987 2987 2986 2986 2986 2986 2986 2986 2985 2985 2985 2985 2985 2985 2984 2984 2984 2984
3016 3015 3014 3013 3012 3011 3010 3009 3008 3007 3006 3005 3004 3003 3002 3001 3001 3000 2999 2998 2997 2996 2995 2995 2994 2993 2993 2993 2992 2992 2992 2992 2991 2991 2991 2991 2991 2991 2991 2991 2991 2991 2990 2990 2990 2990 2989 2989 2989 2989 2989 2989 2989 2988 2988 2988 2987 2987 2987 2987 2987 2987 2986 2986 2986 2986 2986 2986 2985 2985 2985 2985 2984 2984 2984 2984 2983 2983 2983 2983 2983 2982 2982 2982 2982 2982
3014 3013 3012 3011 3011 3009 3008 3007 3006 3005 3004 3003 3002 3001 3000 2999 2998 2998 2997 2996 2995 2994 2994 2993 2992 2992 2991 2991 2991 2991 2991 2991 2990 2990 2990 2990 2990 2990 2990 2990 2990 2989 2989 2989 2988 2988 2988 2988 2987 2987 2987 2987 2987 2987 2986 2986 2986 2986 2985 2985 2985 2985 2985 2985 2984 2984 2984 2984 2983 2983 2983 2983 2983 2982 2982 2982 2981 2981 2981 2981 2981 2981 2980 2980 2980 2980
3013 3012 3011 3010 3009 3008 3007 3006 3005 3004 3002 3001 3001 3000 2999 2998 2997 2996 2995 2994 2993 2992 2992 2992 2991 2991 2990 2990 2990 2990 2990 2990 2989 2989 2989 2989 2988 2988 2988 2988 2988 2988 2987 2987 2987 2987 2986 2986 2986 2986 2986 2986 2986 2985 2985 2984 2984 2984 2983 2983 2983 2983 2983 2983 2982 2982 2982 2982 2982 2981 2981 2981 2981 2980 2980 2980 2980 2979 2979 2979 2978 2978 2978 2978 2977 2977
3011 3010 3009 3008 3007 3006 3005 3004 3003 3002 3001 3000 2999 2998 2997 2996 2995 2994 2993 2992 2991 2991 2991 2990 2990 2989 2989 2989 2989 2989 2989 2988 2988 2988 2988 2987 2987 2987 2987 2987 2987 2986 2986 2986 2986 2985 2985 2985 2985 2984 2984 2984 2984 2983 2983 2982 2982 2982 2981 2981 2981 2981 2981 2981 2981 2981 2980 2980 2980 2980 2979 2979 2979 2978 2978 2977 2977 2977 2976 2976 2976 2976 2975 2975 2975 2975
3009 3008 3007 3006 3005 3004 3003 3002 3001 3000 2999 2998 2997 2996 2995 2995 2994 2992 2991 2991 2990 2990 2989 2989 2988 2988 2988 2987 2987 2987 2987 2987 2987 2987 2986 2986 2986 2986 2986 2986 2986 2985 2985 2985 2984 2984 2984 2983 2983 2983 2982 2982 2982 2981 2981 2981 2980 2980 2980 2980 2979 2979 2979 2979 2979 2978 2978 2978 2978 2977 2977 2977 2976 2976 2976 2975 2975 2974 2974 2974 2973 2973 2972 2972 2972 2972
3007 3006 3006 3005 3003 3002 3001 3001 2999 2998 2997 2996 2995 2994 2993 2993 2992 2991 2990 2989 2989 2988 2988 2987 2987 2986 2986 2986 2986 2986 2986 2986 2986 2986 2985 2985 2985 2985 2984 2984 2984 2984 2984 2983 2983 2982 2982 2982 2981 2981 2981 2980 2980 2980 2979 2979 2978 2978 2978 2978 2977 2977 2977 2976 2976 2976 2976 2976 2976 2975 2975 2974 2974 2973 2973 2973 2972 2972 2971 2971 2971 2970 2970 2970 2969 2969
3006 3005 3004 3003 3002 3001 3000 2999 2998 2996 2995 2994 2993 2992 2991 2991 2990 2989 2988 2988 2987 2987 2986 2986 2986 2985 2985 2985 2985 2984 2984 2985 2985 2984 2984 2984 2984 2984 2983 2983 2982 2982 2982 2982 2981 2981 2981 2980 2980 2980 2979 2979 2978 2978 2977 2977 2977 2976 2976 2976 2975 2975 2975 2974 2974 2974 2974 2973 2973 2973 2972 2972 2971 2971 2971 2970 2970 2969 2969 2968 2968 2967 2967 2967 2966 2966
3004 3003 3002 3001 3000 2999 2998 2997 2996 2995 2994 2993 2991 2991 2990 2989 2988 2988 2987 2986 2986 2985 2985 2985 2984 2984 2984 2983 2983 2983 2983 2983 2983 2983 2983 2983 2983 2982 2982 2981 2981 2981 2981 2981 2980 2980 2979 2979 2979 2978 2978 2977 2977 2976 2976 2976 2975 2975 2974 2974 2973 2973 2972 2972 2972 2971 2971 2971 2971 2970 2970 2969 2969 2968 2968 2967 2967 2966 2966 2966 2965 2964 2964 2964 2964 2963
3003 3002 3001 3000 2998 2997 2996 2995 2994 2993 2992 2991 2990 2989 2988 2987 2986 2986 2985 2985 2984 2984 2984 2983 2983 2983 2982 2982 2982 2981 2981 2981 2981 2981 2981 2981 2981 2981 2981 2980 2980 2979 2979 2979 2979 2979 2979 2978 2977 2977 2977 2976 2976 2975 2975 2974 2974 2973 2972 2972 2971 2971 2970 2970 2969 2969 2968 2968 2968 2967 2967 2966 2966 2966 2965 2965 2964 2964 2963 2963 2962 2961 2961 2961 2961 2961
3001 3000 2999 2998 2997 2996 2995 2993 2992 2991 2990 2989 2988 2987 2986 2986 2985 2984 2984 2983 2983 2982 2982 2982 2981 2981 2981 2981 2981 2980 2980 2979 2979 2980 2980 2980 2980 2979 2979 2979 2978 2978 2978 2977 2977 2978 2978 2977 2977 2976 2976 2976 2975 2974 2973 2973 2972 2971 2971 2970 2970 2969 2968 2967 2966 2966 2966 2965 2965 2964 2964 2963 2963 2963 2962 2962 2961 2961 2961 2960 2960 2959 2958 2958 2958 2958
3000 2999 2997 2996 2995 2994 2993 2991 2991 2989 2988 2987 2986 2986 2985 2984 2983 2983 2982 2982 2981 2981 2981 2981 2980 2980 2980 2979 2979 2979 2978 2978 2977 2978 2978 2978 2978 2977 2977 2977 2976 2976 2976 2976 2976 2976 2976 2976 2976 2976 2975 2975 2974 2973 2972 2971 2971 2970 2969 2969 2968 2967 2966 2965 2964 2964 2963 2962 2962 2961 2961 2960 2960 2960 2959 2959 2959 2958 2958 2957 2957 2956 2956 2955 2955 2955
2998 2997 2996 2995 2993 2992 2991 2990 2989 2987 2986 2986 2985 2984 2983 2982 2982 2981 2981 2981 2980 2980 2980 2979 2979 2979 2978 2978 2978 2977 2977 2976 2976 2976 2976 2976 2976 2976 2976 2976 2975 2975 2975 2974 2974 2974 2974 2975 2975 2975 2975 2974 2974 2973 2972 2971 2970 2969 2968 2967 2966 2966 2965 2964 2963 2962 2961 2960 2960 2959 2958 2957 2957 2956 2956 2956 2956 2955 2955 2955 2954 2953 2953 2952 2952 2952
2996 2995 2994 2993 2991 2991 2989 2988 2987 2986 2985 2984 2983 2982 2981 2981 2981 2980 2979 2979 2979 2978 2978 2978 2977 2977 2977 2976 2976 2976 2975 2975 2974 2974 2974 2974 2974 2974 2974 2974 2973 2973 2973 2973 2973 2973 2973 2973 2973 2973 2973 2973 2972 2972 2971 2970 2969 2968 2967 2966 2965 2964 2963 2962 2961 2960 2959 2959 2958 2957 2956 2955 2954 2954 2953 2953 2952 2952 2952 2952 2951 2951 2950 2950 2949 2949
2994 2993 2992 2991 2990 2989 2987 2986 2985 2984 2983 2982 2981 2981 2980 2979 2979 2978 2978 2978 2977 2977 2976 2976 2976 2976 2975 2975 2975 2974 2974 2973 2973 2973 2972 2972 2972 2972 2972 2972 2972 2971 2971 2971 2971 2971 2971 2971 2971 2971 2971 2971 2970 2970 2969 2968 2967 2966 2966 2965 2964 2963 2961 2961 2960 2959 2958 2957 2956 2955 2954 2953 2952 2951 2951 2950 2950 2950 2949 2949 2949 2948 2947 2947 2946 2946
2992 2991 2990 2989 2988 2987 2986 2984 2983 2982 2981 2981 2980 2979 2978 2978 2977 2977 2976 2976 2976 2976 2975 2975 2974 2974 2974 2973 2973 2973 2972 2972 2971 2971 2971 2971 2971 2971 2971 2970 2970 2970 2969 2969 2969 2969 2969 2969 2968 2968 2968 2968 2968 2968 2967 2966 2966 2965 2964 2963 2962 2961 2960 2959 2957 2956 2956 2955 2954 2953 2952 2951 2950 2949 2948 2948 2947 2947 2946 2946 2946 2945 2945 2944 2944 2943
2991 2989 2988 2987 2986 2985 2984 2982 2981 2981 2980 2979 2978 2977 2977 2976 2976 2976 2975 2975 2974 2974 2974 2973 2973 2972 2972 2972 2971 2971 2971 2970 2970 2969 2969 2969 2969 2969 2969 2968 2968 2968 2967 2967 2967 2966 2966 2966 2966 2966 2966 2966 2966 2965 2965 2964 2964 2963 2962 2961 2960 2959 2958 2956 2956 2955 2954 2953 2952 2951 2950 2949 2948 2947 2946 2946 2945 2944 2944 2944 2943 2942 2942 2941 2941 2940
2989 2987 2986 2985 2984 2983 2982 2981 2980 2979 2978 2977 2976 2976 2975 2975 2974 2974 2974 2973 2973 2972 2972 2971 2971 2971 2970 2970 2970 2969 2969 2968 2968 2968 2967 2967 2967 2966 2966 2966 2966 2966 2965 2965 2965 2964 2964 2964 2963 2963 2963 2963 2963 2963 2962 2962 2961 2961 2960 2959 2958 2957 2956 2954 2953 2952 2951 2950 2949 2949 2948 2947 2946 2945 2944 2943 2943 2942 2942 2941 2941 2940 2939 2939 2938 2938
2987 2986 2984 2983 2982 2981 2980 2979 2978 2977 2976 2976 2975 2974 2973 2973 2972 2972 2972 2971 2971 2971 2970 2970 2969 2969 2969 2968 2968 2967 2967 2966 2966 2966 2966 2965 2965 2965 2964 2964 2964 2963 2963 2963 2962 2962 2961 2961 2961 2961 2960 2960 2960 2960 2960 2960 2959 2958 2957 2956 2956 2955 2954 2953 2951 2950 2949 2948 2947 2946 2945 2944 2943 2942 2942 2941 2941 2940 2940 2939 2938 2938 2937 2936 2936 2935
2985 2984 2983 2981 2980 2979 2978 2977 2976 2975 2974 2974 2973 2972 2971 2971 2971 2970 2970 2969 2969 2969 2968 2968 2967 2967 2967 2966 2966 2965 2965 2965 2964 2964 2963 2963 2963 2962 2962 2962 2961 2961 2961 2960 2960 2959 2959 2958 2958 2958 2957 2957 2957 2957 2957 2957 2956 2955 2954 2953 2953 2952 2952 2951 2949 2948 2946 2945 2944 2943 2942 2941 2941 2940 2939 2939 2938 2938 2937 2936 2936 2935 2935 2934 2933 2932
2983 2982 2981 2980 2979 2977 2976 2975 2974 2973 2973 2972 2971 2971 2970 2969 2969 2968 2968 2967 2967 2967 2966 2966 2966 2965 2965 2964 2964 2963 2963 2962 2962 2961 2961 2961 2960 2960 2960 2959 2959 2958 2958 2958 2957 2957 2956 2956 2955 2955 2954 2954 2954 2954 2954 2954 2953 2952 2951 2950 2949 2949 2949 2948 2947 2945 2944 2943 2942 2941 2940 2939 2938 2937 2937 2936 2936 2935 2935 2934 2933 2933 2932 2931 2931 2930
2982 2981 2979 2978 2977 2976 2975 2974 2973 2972 2971 2970 2969 2969 2968 2967 2967 2966 2966 2966 2965 2965 2964 2964 2964 2963 2963 2962 2961 2961 2960 2960 2959 2959 2959 2958 2958 2957 2957 2957 2956 2956 2956 2955 2955 2954 2954 2953 2953 2952 2951 2951 2951 2951 2951 2950 2950 2949 2948 2947 2946 2945 2945 2945 2944 2943 2941 2940 2939 2938 2937 2936 2936 2935 2934 2934 2933 2933 2932 2931 2931 2930 2929 2928 2928 2927
2980 2979 2978 2976 2975 2974 2973 2972 2971 2970 2969 2969 2968 2967 2966 2965 2965 2964 2964 2963 2963 2963 2962 2962 2961 2961 2961 2960 2960 2959 2958 2957 2957 2956 2956 2956 2955 2955 2954 2954 2954 2953 2953 2952 2952 2951 2951 2950 2950 2949 2949 2948 2948 2947 2947 2947 2946 2945 2944 2943 2942 2942 2941 2941 2940 2940 2939 2938 2936 2936 2934 2933 2933 2932 2932 2931 2931 2930 2930 2929 2928 2927 2926 2926 2925 2925
2978 2977 2976 2975 2974 2972 2971 2971 2970 2969 2968 2967 2966 2965 2964 2963 2963 2962 2962 2961 2961 2961 2960 2960 2960 2959 2959 2958 2957 2956 2956 2955 2954 2954 2953 2953 2952 2952 2952 2951 2951 2950 2950 2949 2949 2948 2948 2947 2947 2946 2946 2945 2945 2944 2944 2943 2942 2942 2941 2940 2939 2939 2938 2937 2936 2936 2935 2934 2934 2933 2931 2931 2930 2929 2929 2929 2928 2928 2927 2926 2926 2925 2924 2923 2922 2922
2976 2975 2974 2973 2972 2971 2970 2969 2968 2967 2966 2965 2964 2963 2962 2961 2961 2961 2960 2960 2959 2958 2958 2958 2957 2957 2956 2956 2956 2955 2954 2953 2952 2951 2950 2950 2950 2949 2949 2948 2948 2947 2947 2946 2946 2946 2945 2945 2944 2944 2943 2943 2942 2941 2941 2940 2939 2938 2938 2937 2936 2936 2935 2934 2933 2932 2931 2931 2930 2930 2929 2928 2927 2926 2926 2926 2926 2925 2925 2924 2923 2922 2922 2921 2920 2919
2975 2973 2972 2971 2970 2969 2968 2967 2966 2965 2964 2963 2962 2961 2961 2960 2959 2958 2958 2957 2957 2956 2956 2956 2955 2955 2954 2954 2953 2952 2952 2951 2950 2949 2948 2947 2946 2946 2946 2946 2945 2945 2944 2943 2943 2942 2942 2942 2941 2941 2940 2940 2939 2939 2938 2937 2936 2935 2934 2934 2933 2932 2931 2931 2930 2929 2928 2928 2927 2926 2926 2925 2924 2924 2923 2923 2922 2922 2922 2921 2921 2920 2919 2918 2918 2917
2973 2972 2971 2970 2968 2967 2966 2965 2964 2963 2962 2961 2960 2959 2958 2958 2957 2956 2956 2955 2955 2954 2954 2953 2953 2952 2952 2951 2951 2950 2950 2949 2948 2947 2946 2945 2944 2944 2943 2943 2942 2941 2941 2941 2940 2940 2939 2939 2938 2938 2937 2937 2936 2936 2935 2934 2933 2932 2931 2931 2930 2929 2928 2928 2927 2926 2926 2925 2924 2923 2922 2922 2921 2921 2920 2920 2919 2919 2919 2919 2918 2917 2917 2916 2915 2914
2971 2970 2969 2968 2967 2966 2965 2964 2962 2961 2961 2960 2959 2957 2956 2956 2955 2954 2953 2953 2952 2952 2951 2951 2951 2950 2950 2949 2949 2948 2948 2947 2946 2946 2944 2943 2942 2941 2941 2940 2940 2939 2938 2938 2938 2937 2937 2936 2936 2936 2935 2934 2933 2932 2932 2931 2931 2930 2929 2928 2927 2926 2926 2925 2924 2923 2922 2922 2921 2920 2920 2919 2918 2917 2916 2916 2916 2916 2916 2916 2915 2915 2914 2913 2912 2912
2970 2968 2967 2966 2965 2964 2963 2962 2961 2960 2959 2958 2957 2956 2955 2954 2953 2952 2951 2951 2950 2949 2949 2949 2948 2948 2947 2947 2946 2946 2946 2945 2944 2943 2942 2941 2940 2940 2939 2938 2937 2937 2936 2936 2935 2935 2934 2934 2934 2933 2933 2932 2931 2930 2929 2928 2928 2927 2926 2926 2925 2924 2923 2922 2921 2921 2920 2919 2918 2917 2917 2916 2915 2914 2914 2913 2912 2913 2913 2912 2912 2912 2911 2911 2910 2909
2968 2967 2966 2964 2963 2962 2961 2960 2959 2958 2957 2956 2955 2954 2953 2952 2951 2950 2949 2948 2947 2947 2946 2946 2946 2946 2945 2945 2944 2944 2943 2942 2942 2941 2940 2939 2938 2937 2936 2936 2935 2934 2934 2933 2932 2932 2931 2931 2931 2931 2931 2930 2928 2927 2926 2925 2925 2924 2924 2923 2922 2921 2920 2919 2918 2917 2917 2916 2915 2915 2914 2913 2912 2911 2911 2910 2909 2909 2909 2909 2909 2909 2908 2907 2906 2906